Time,TemperatureF,DewpointF,PressureIn,WindDirection,WindDirectionDegrees,WindSpeedMPH,WindSpeedGustMPH,Humidity,HourlyPrecipIn,Conditions,Clouds,dailyrainin,SolarRadiationWatts/m^2,SoftwareType,DateUTC
2013-03-03 00:21:00,25.0,18.0,-100.00,ENE,77,7.0,11.0,74,0.00,,,0.00,0.000000,,2013-03-03 07:21:00,
2013-03-03 00:31:00,25.0,18.0,-100.00,ENE,77,7.0,11.0,74,0.00,,,0.00,0.000000,,2013-03-03 07:31:00,
2013-03-03 00:42:00,25.0,18.0,-100.00,ENE,77,7.0,11.0,74,0.00,,,0.00,0.000000,,2013-03-03 07:42:00,
2013-03-03 00:51:00,25.0,18.0,-100.00,ENE,77,7.0,11.0,74,0.00,,,0.00,0.000000,,2013-03-03 07:51:00,
2013-03-03 01:21:00,26.0,18.0,-100.00,ESE,118,8.0,10.0,72,0.00,,,0.00,0.000000,,2013-03-03 08:21:00,
2013-03-03 01:31:00,26.0,18.0,-100.00,ESE,118,8.0,10.0,72,0.00,,,0.00,0.000000,,2013-03-03 08:31:00,
2013-03-03 01:41:00,26.0,18.0,-100.00,ESE,118,8.0,10.0,72,0.00,,,0.00,0.000000,,2013-03-03 08:41:00,
2013-03-03 01:53:00,26.0,18.0,-100.00,ESE,118,8.0,10.0,72,0.00,,,0.00,0.000000,,2013-03-03 08:53:00,
2013-03-03 02:21:00,26.0,16.0,-100.00,East,84,4.0,11.0,65,0.00,,,0.00,0.000000,,2013-03-03 09:21:00,
2013-03-03 02:32:00,26.0,16.0,-100.00,East,84,4.0,11.0,65,0.00,,,0.00,0.000000,,2013-03-03 09:32:00,
2013-03-03 02:41:00,26.0,16.0,-100.00,East,84,4.0,11.0,65,0.00,,,0.00,0.000000,,2013-03-03 09:41:00,
2013-03-03 02:51:00,26.0,16.0,-100.00,East,84,4.0,11.0,65,0.00,,,0.00,0.000000,,2013-03-03 09:51:00,
2013-03-03 03:21:00,22.0,15.0,-100.00,East,88,4.0,8.0,75,0.00,,,0.00,0.000000,,2013-03-03 10:21:00,
2013-03-03 03:32:00,22.0,15.0,-100.00,East,88,4.0,8.0,75,0.00,,,0.00,0.000000,,2013-03-03 10:32:00,
2013-03-03 03:42:00,22.0,15.0,-100.00,East,88,4.0,8.0,75,0.00,,,0.00,0.000000,,2013-03-03 10:42:00,
2013-03-03 03:52:00,22.0,15.0,-100.00,East,88,4.0,8.0,75,0.00,,,0.00,0.000000,,2013-03-03 10:52:00,
2013-03-03 04:21:00,25.0,14.0,-100.00,ENE,68,2.0,6.0,63,0.00,,,-99.99,0.000000,,2013-03-03 11:21:00,
2013-03-03 04:32:00,25.0,14.0,-100.00,ENE,68,2.0,6.0,63,0.00,,,-99.99,0.000000,,2013-03-03 11:32:00,
2013-03-03 04:42:00,25.0,14.0,-100.00,ENE,68,2.0,6.0,63,0.00,,,-99.99,0.000000,,2013-03-03 11:42:00,
2013-03-03 04:52:00,25.0,14.0,-100.00,ENE,68,2.0,6.0,63,0.00,,,-99.99,0.000000,,2013-03-03 11:52:00,
2013-03-03 05:21:00,26.0,14.0,-100.00,East,80,2.0,5.0,60,0.00,,,0.00,0.000000,,2013-03-03 12:21:00,
2013-03-03 05:32:00,26.0,14.0,-100.00,East,80,2.0,5.0,60,0.00,,,0.00,0.000000,,2013-03-03 12:32:00,
2013-03-03 05:43:00,26.0,14.0,-100.00,East,80,2.0,5.0,60,0.00,,,0.00,0.000000,,2013-03-03 12:43:00,
2013-03-03 05:52:00,26.0,14.0,-100.00,East,80,2.0,5.0,60,0.00,,,0.00,0.000000,,2013-03-03 12:52:00,
2013-03-03 06:22:00,25.0,14.0,-100.00,East,81,2.0,4.0,63,0.00,,,0.00,0.000000,,2013-03-03 13:22:00,
2013-03-03 06:32:00,25.0,14.0,-100.00,East,81,2.0,4.0,63,0.00,,,0.00,0.000000,,2013-03-03 13:32:00,
2013-03-03 06:42:00,25.0,14.0,-100.00,East,81,2.0,4.0,63,0.00,,,0.00,0.000000,,2013-03-03 13:42:00,
2013-03-03 06:52:00,25.0,14.0,-100.00,East,81,2.0,4.0,63,0.00,,,0.00,0.000000,,2013-03-03 13:52:00,
2013-03-03 07:21:00,26.0,15.0,-100.00,ENE,63,3.0,4.0,63,0.00,,,0.00,7.000000,,2013-03-03 14:21:00,
2013-03-03 07:32:00,26.0,15.0,-100.00,ENE,63,3.0,4.0,63,0.00,,,0.00,7.000000,,2013-03-03 14:32:00,
2013-03-03 07:42:00,26.0,15.0,-100.00,ENE,63,3.0,4.0,63,0.00,,,0.00,7.000000,,2013-03-03 14:42:00,
2013-03-03 07:52:00,26.0,15.0,-100.00,ENE,63,3.0,4.0,63,0.00,,,0.00,7.000000,,2013-03-03 14:52:00,
2013-03-03 08:22:00,33.0,17.0,-100.00,SW,229,3.0,5.0,52,0.00,,,0.00,87.000000,,2013-03-03 15:22:00,
2013-03-03 08:32:00,33.0,17.0,-100.00,SW,229,3.0,5.0,52,0.00,,,0.00,87.000000,,2013-03-03 15:32:00,
2013-03-03 08:42:00,33.0,17.0,-100.00,SW,229,3.0,5.0,52,0.00,,,0.00,87.000000,,2013-03-03 15:42:00,
2013-03-03 08:52:00,33.0,17.0,-100.00,SW,229,3.0,5.0,52,0.00,,,0.00,87.000000,,2013-03-03 15:52:00,
2013-03-03 09:22:00,34.0,16.0,-100.00,WSW,255,9.0,12.0,48,0.00,,,0.00,236.000000,,2013-03-03 16:22:00,
2013-03-03 09:32:00,34.0,16.0,-100.00,WSW,255,9.0,12.0,48,0.00,,,0.00,236.000000,,2013-03-03 16:32:00,
2013-03-03 09:42:00,34.0,16.0,-100.00,WSW,255,9.0,12.0,48,0.00,,,0.00,236.000000,,2013-03-03 16:42:00,
2013-03-03 09:52:00,34.0,16.0,-100.00,WSW,255,9.0,12.0,48,0.00,,,0.00,236.000000,,2013-03-03 16:52:00,
2013-03-03 10:22:00,36.0,18.0,-100.00,West,264,9.0,16.0,47,0.00,,,0.00,306.000000,,2013-03-03 17:22:00,
2013-03-03 10:32:00,36.0,18.0,-100.00,West,264,9.0,16.0,47,0.00,,,0.00,306.000000,,2013-03-03 17:32:00,
2013-03-03 10:42:00,36.0,18.0,-100.00,West,264,9.0,16.0,47,0.00,,,0.00,306.000000,,2013-03-03 17:42:00,
2013-03-03 10:52:00,36.0,18.0,-100.00,West,264,9.0,16.0,47,0.00,,,0.00,306.000000,,2013-03-03 17:52:00,
2013-03-03 11:21:00,38.0,18.0,-100.00,West,260,10.0,21.0,43,0.00,,,0.00,337.000000,,2013-03-03 18:21:00,
2013-03-03 11:32:00,38.0,18.0,-100.00,West,260,10.0,21.0,43,0.00,,,0.00,337.000000,,2013-03-03 18:32:00,
2013-03-03 11:42:00,38.0,18.0,-100.00,West,260,10.0,21.0,43,0.00,,,0.00,337.000000,,2013-03-03 18:42:00,
2013-03-03 11:52:00,38.0,18.0,-100.00,West,260,10.0,21.0,43,0.00,,,0.00,337.000000,,2013-03-03 18:52:00,
2013-03-03 12:22:00,40.0,19.0,-100.00,WSW,240,9.0,17.0,42,0.00,,,0.00,411.000000,,2013-03-03 19:22:00,
2013-03-03 12:32:00,40.0,19.0,-100.00,WSW,240,9.0,17.0,42,0.00,,,0.00,411.000000,,2013-03-03 19:32:00,
2013-03-03 12:42:00,40.0,19.0,-100.00,WSW,240,9.0,17.0,42,0.00,,,0.00,411.000000,,2013-03-03 19:42:00,
2013-03-03 12:52:00,40.0,19.0,-100.00,WSW,240,9.0,17.0,42,0.00,,,0.00,411.000000,,2013-03-03 19:52:00,
2013-03-03 13:21:00,41.0,17.0,-100.00,West,269,16.0,23.0,37,0.00,,,0.00,630.000000,,2013-03-03 20:21:00,
2013-03-03 13:32:00,41.0,17.0,-100.00,West,269,16.0,23.0,37,0.00,,,0.00,630.000000,,2013-03-03 20:32:00,
2013-03-03 13:42:00,41.0,17.0,-100.00,West,269,16.0,23.0,37,0.00,,,0.00,630.000000,,2013-03-03 20:42:00,
2013-03-03 13:52:00,41.0,17.0,-100.00,West,269,16.0,23.0,37,0.00,,,0.00,630.000000,,2013-03-03 20:52:00,
2013-03-03 14:22:00,36.0,18.0,-100.00,West,276,14.0,26.0,48,0.00,,,0.00,273.000000,,2013-03-03 21:22:00,
2013-03-03 14:32:00,36.0,18.0,-100.00,West,276,14.0,26.0,48,0.00,,,0.00,273.000000,,2013-03-03 21:32:00,
2013-03-03 14:42:00,36.0,18.0,-100.00,West,276,14.0,26.0,48,0.00,,,0.00,273.000000,,2013-03-03 21:42:00,
2013-03-03 14:52:00,36.0,18.0,-100.00,West,276,14.0,26.0,48,0.00,,,0.00,273.000000,,2013-03-03 21:52:00,
2013-03-03 15:22:00,36.0,21.0,-100.00,West,280,12.0,23.0,54,0.00,,,0.00,110.000000,,2013-03-03 22:22:00,
2013-03-03 15:32:00,36.0,21.0,-100.00,West,280,12.0,23.0,54,0.00,,,0.00,110.000000,,2013-03-03 22:32:00,
2013-03-03 15:42:00,36.0,21.0,-100.00,West,280,12.0,23.0,54,0.00,,,0.00,110.000000,,2013-03-03 22:42:00,
2013-03-03 15:52:00,36.0,21.0,-100.00,West,280,12.0,23.0,54,0.00,,,0.00,110.000000,,2013-03-03 22:52:00,
2013-03-03 16:21:00,35.0,21.0,-100.00,West,275,15.0,23.0,57,0.00,,,0.00,81.000000,,2013-03-03 23:21:00,
2013-03-03 16:32:00,35.0,21.0,-100.00,West,275,15.0,23.0,57,0.00,,,0.00,81.000000,,2013-03-03 23:32:00,
2013-03-03 16:42:00,35.0,21.0,-100.00,West,275,15.0,23.0,57,0.00,,,0.00,81.000000,,2013-03-03 23:42:00,
2013-03-03 16:52:00,35.0,21.0,-100.00,West,275,15.0,23.0,57,0.00,,,0.00,81.000000,,2013-03-03 23:52:00,
2013-03-03 17:21:00,34.0,22.0,-100.00,West,276,14.0,25.0,61,0.00,,,0.00,86.000000,,2013-03-04 00:21:00,
2013-03-03 17:32:00,34.0,22.0,-100.00,West,276,14.0,25.0,61,0.00,,,0.00,86.000000,,2013-03-04 00:32:00,
2013-03-03 17:42:00,34.0,22.0,-100.00,West,276,14.0,25.0,61,0.00,,,0.00,86.000000,,2013-03-04 00:42:00,
2013-03-03 17:52:00,34.0,22.0,-100.00,West,276,14.0,25.0,61,0.00,,,0.00,86.000000,,2013-03-04 00:52:00,
2013-03-03 18:21:00,31.0,26.0,-100.00,West,272,11.0,24.0,82,0.00,,,0.00,11.000000,,2013-03-04 01:21:00,
2013-03-03 18:32:00,31.0,26.0,-100.00,West,272,11.0,24.0,82,0.00,,,0.00,11.000000,,2013-03-04 01:32:00,
2013-03-03 18:42:00,31.0,26.0,-100.00,West,272,11.0,24.0,82,0.00,,,0.00,11.000000,,2013-03-04 01:42:00,
2013-03-03 18:51:00,31.0,26.0,-100.00,West,272,11.0,24.0,82,0.00,,,0.00,11.000000,,2013-03-04 01:51:00,
2013-03-03 19:22:00,29.0,27.0,-100.00,West,268,10.0,19.0,94,0.00,,,0.00,1.000000,,2013-03-04 02:22:00,
2013-03-03 19:32:00,29.0,27.0,-100.00,West,268,10.0,19.0,94,0.00,,,0.00,1.000000,,2013-03-04 02:32:00,
2013-03-03 19:42:00,29.0,27.0,-100.00,West,268,10.0,19.0,94,0.00,,,0.00,1.000000,,2013-03-04 02:42:00,
2013-03-03 19:52:00,29.0,27.0,-100.00,West,268,10.0,19.0,94,0.00,,,0.00,1.000000,,2013-03-04 02:52:00,
2013-03-03 20:22:00,28.0,27.0,-100.00,West,260,4.0,13.0,96,0.00,,,0.00,0.000000,,2013-03-04 03:22:00,
2013-03-03 20:32:00,28.0,27.0,-100.00,West,260,4.0,13.0,96,0.00,,,0.00,0.000000,,2013-03-04 03:32:00,
2013-03-03 20:42:00,28.0,27.0,-100.00,West,260,4.0,13.0,96,0.00,,,0.00,0.000000,,2013-03-04 03:42:00,
2013-03-03 20:52:00,28.0,27.0,-100.00,West,260,4.0,13.0,96,0.00,,,0.00,0.000000,,2013-03-04 03:52:00,
2013-03-03 21:22:00,29.0,28.0,-100.00,West,264,7.0,14.0,95,0.00,,,0.00,0.000000,,2013-03-04 04:22:00,
2013-03-03 21:32:00,29.0,28.0,-100.00,West,264,7.0,14.0,95,0.00,,,0.00,0.000000,,2013-03-04 04:32:00,
2013-03-03 21:42:00,29.0,28.0,-100.00,West,264,7.0,14.0,95,0.00,,,0.00,0.000000,,2013-03-04 04:42:00,
2013-03-03 21:51:00,29.0,28.0,-100.00,West,264,7.0,14.0,95,0.00,,,0.00,0.000000,,2013-03-04 04:51:00,
2013-03-03 22:22:00,28.0,27.0,-100.00,WSW,253,4.0,13.0,96,0.00,,,0.00,0.000000,,2013-03-04 05:22:00,
2013-03-03 22:32:00,28.0,27.0,-100.00,WSW,253,4.0,13.0,96,0.00,,,0.00,0.000000,,2013-03-04 05:32:00,
2013-03-03 22:42:00,28.0,27.0,-100.00,WSW,253,4.0,13.0,96,0.00,,,0.00,0.000000,,2013-03-04 05:42:00,
2013-03-03 22:52:00,28.0,27.0,-100.00,WSW,253,4.0,13.0,96,0.00,,,0.00,0.000000,,2013-03-04 05:52:00,
2013-03-03 23:21:00,28.0,28.0,-100.00,West,269,7.0,12.0,98,0.00,,,0.00,0.000000,,2013-03-04 06:21:00,
2013-03-03 23:32:00,28.0,28.0,-100.00,West,269,7.0,12.0,98,0.00,,,0.00,0.000000,,2013-03-04 06:32:00,
2013-03-03 23:42:00,28.0,28.0,-100.00,West,269,7.0,12.0,98,0.00,,,0.00,0.000000,,2013-03-04 06:42:00,
2013-03-03 23:51:00,28.0,28.0,-100.00,West,269,7.0,12.0,98,0.00,,,0.00,0.000000,,2013-03-04 06:51:00,